{"data":{"norad_id":64790,"epoch":"2026-05-25T03:45:30.430080Z","epoch_age_seconds":64956,"freshness":"FRESH","line1":"1 64790U 25150A   26145.15660220  .00001791  00000+0  15781-3 0  9991","line2":"2 64790  70.0004 301.5457 0002814 270.0332  90.0504 14.98339975 47979","mean_motion":14.98339975,"eccentricity":0.0002814,"inclination_deg":70.0004,"raan_deg":301.5457,"arg_perigee_deg":270.0332,"mean_anomaly_deg":90.0504,"bstar":0.00015781,"rev_number":4797,"period_min":96.106359306071,"perigee_km":570.06926865164,"apogee_km":573.98081985014,"semimajor_km":6950.1620442509,"source":"CELESTRAK","updated_at":"2026-05-25T13:38:20.562010Z"}}